Tracking 25693 objects as of 1-Jul-2022
HD Live streaming from Space Station
objects crossing your sky now

STARLINK-1669

Track STARLINK-1669 now!
10-day predictions
STARLINK-1669 is classified as:


NORAD ID: 47624
Int'l Code: 2021-012E
Perigee: 553.4 km
Apogee: 555.3 km
Inclination: 53.1 °
Period: 95.6 minutes
Semi major axis: 6925 km
RCS: Unknown
Launch date: February 16, 2021
Source: United States (US)
Launch site: AIR FORCE EASTERN TEST RANGE (AFETR)
aabbcc
Your satellite tracking list
Your tracking list is empty




NASA's NSSDC Master Catalog

Two Line Element Set (TLE):
1 47624U 21012E   22182.47893538  .00001480  00000-0  11820-3 0  9999
2 47624  53.0557 339.4968 0001400  75.3096 284.8048 15.06399192 77224
Source of the keplerian elements: AFSPC